Flag for Portugal Weather past 2 weeks in Funchal, Madeira, Portugal

Now
59 °F

Passing clouds.


Feels Like: 59 °F
Forecast: 61 / 69 °F
Wind: 1 mph from North

Location: Aeroporto Da Madeira


UV Index: 7 (High)

Visibility: N/A


Pressure: 30.09 "Hg

Humidity: 77%

Dew point: 52 °F

Location of FunchalLocation

Historic Weather in Funchal

°F

Funchal temperature yesterday

Maximum temperature yesterday: 72 °F (at 3:30 PM)
Minimum temperature yesterday: 59 °F (at 1:00 AM)
Average temperature yesterday: 63 °F

Past Weeks' High & Low Weather Summary

 TemperatureHumidityPressure
High72 °F (Apr 17, 3:30 PM)94% (Apr 13, 8:00 AM)30.24 "Hg (Apr 13, 8:00 AM)
Low55 °F (Apr 3, 8:00 AM)46% (Apr 3, 3:30 PM)29.89 "Hg (Apr 13, 5:00 AM)
Average62 °F76%30.05 "Hg
* Reported Apr 3 8:00 AM — Apr 18 8:00 AM, Funchal, Weather by CustomWeather, © 2014

Note: Actual official high and low records may vary slightly from our data, if they occured in-between our weather recording intervals... More about our weather records

Advertising

Historic Weather Conditions — Data for Previous 24 hours

 ConditionsComfort  
Time TempWeatherWind HumidityBarometerVisibility
8:00 AM
Apr 18
57 °FPassing clouds.2 mph82%30.07 "HgN/A
7:30 AM57 °FPassing clouds.3 mph82%30.07 "HgN/A
7:00 AM57 °FPassing clouds.2 mph82%30.07 "HgN/A
6:30 AM57 °FPassing clouds.1 mph82%30.07 "HgN/A
6:00 AM57 °FPassing clouds.1 mph82%30.07 "HgN/A
5:30 AM59 °FPassing clouds.1 mph77%30.07 "HgN/A
5:00 AM59 °FPassing clouds.2 mph77%30.07 "HgN/A
4:30 AM59 °FPassing clouds.3 mph77%30.07 "HgN/A
3:00 AM59 °FPassing clouds.1 mph77%30.09 "HgN/A
2:30 AM59 °FPassing clouds.1 mph77%30.09 "HgN/A
2:00 AM59 °FPassing clouds.1 mph82%30.12 "HgN/A
1:30 AM59 °FPassing clouds.2 mph82%30.12 "HgN/A
1:00 AM59 °FPassing clouds.1 mph82%30.12 "HgN/A
12:00 AM59 °FPassing clouds.2 mph82%30.12 "HgN/A
11:30 PM
Apr 17
59 °FPassing clouds.3 mph82%30.12 "HgN/A
11:00 PM61 °FPassing clouds.3 mph77%30.12 "HgN/A
10:30 PM61 °FPassing clouds.3 mph77%30.12 "HgN/A
10:00 PM61 °FPassing clouds.3 mph83%30.09 "HgN/A
9:30 PM63 °FPassing clouds.5 mph77%30.09 "HgN/A
9:00 PM63 °FPassing clouds.3 mph83%30.09 "HgN/A
8:30 PM63 °FPassing clouds.3 mph83%30.09 "HgN/A
8:00 PM64 °FBroken clouds.3 mph78%30.07 "HgN/A
7:30 PM64 °FBroken clouds.1 mph78%30.07 "HgN/A
7:00 PM64 °FBroken clouds.2 mph78%30.09 "HgN/A
6:00 PM64 °FBroken clouds.2 mph78%30.07 "HgN/A
5:00 PM66 °FScattered clouds.8 mph64%30.07 "HgN/A
4:30 PM66 °FScattered clouds.8 mph68%30.07 "HgN/A
4:00 PM68 °FScattered clouds.16 mph69%30.07 "HgN/A
3:30 PM72 °FScattered clouds.16 mph50%30.07 "HgN/A
3:00 PM70 °FScattered clouds.16 mph50%30.07 "HgN/A
2:30 PM66 °FScattered clouds.17 mph68%30.07 "HgN/A
2:00 PM68 °FPassing clouds.16 mph64%30.07 "HgN/A
1:30 PM68 °FPassing clouds.16 mph64%30.07 "HgN/A
1:00 PM70 °FPassing clouds.20 mph60%30.07 "HgN/A
12:30 PM68 °FPassing clouds.18 mph64%30.09 "HgN/A
12:00 PM68 °FPassing clouds.17 mph64%30.09 "HgN/A
11:30 AM68 °FPassing clouds.15 mph60%30.09 "HgN/A
11:00 AM66 °FPassing clouds.14 mph68%30.09 "HgN/A
10:30 AM64 °FPassing clouds.15 mph78%30.07 "HgN/A
10:00 AM66 °FPassing clouds.13 mph68%30.07 "HgN/A
9:30 AM64 °FPassing clouds.5 mph78%30.07 "HgN/A
9:00 AM63 °FPassing clouds.3 mph68%30.07 "HgN/A
Weather by CustomWeather, © 2014

See weather overview